Total_Precipitation_Accumulation
0.16 0.12 0.06 0.05 0.04 0.03 0.01 0.01 0.00 0.00 0.00 0.01 0.01 0.03 0.04 0.06 0.16 0.15 0.18 0.22 0.24 0.27 0.25 0.21 0.14 0.08 0.06 0.07 0.10 0.14 0.19 0.26 0.34 0.36 0.29 0.24 0.18 0.12 0.07 0.06 0.06 0.07 0.06
0.17 0.13 0.07 0.05 0.04 0.03 0.02 0.00 0.00 0.00 0.00 0.00 0.00 0.01 0.02 0.04 0.10 0.12 0.16 0.25 0.35 0.31 0.35 0.37 0.30 0.19 0.15 0.14 0.13 0.16 0.18 0.20 0.25 0.29 0.28 0.28 0.25 0.20 0.17 0.14 0.14 0.11 0.08
0.24 0.18 0.13 0.09 0.06 0.04 0.03 0.01 0.00 0.00 0.00 0.00 0.00 0.00 0.01 0.01 0.01 0.02 0.04 0.08 0.20 0.32 0.40 0.41 0.36 0.30 0.24 0.18 0.13 0.11 0.13 0.14 0.17 0.21 0.22 0.23 0.22 0.22 0.21 0.21 0.22 0.20 0.19
0.30 0.32 0.25 0.18 0.12 0.09 0.06 0.04 0.02 0.01 0.00 0.00 0.00 0.00 0.00 0.00 0.00 0.00 0.01 0.02 0.07 0.15 0.28 0.29 0.28 0.30 0.27 0.21 0.15 0.08 0.07 0.08 0.08 0.10 0.14 0.15 0.14 0.15 0.15 0.19 0.23 0.24 0.24
0.49 0.51 0.48 0.40 0.29 0.20 0.12 0.07 0.04 0.02 0.01 0.01 0.00 0.00 0.00 0.00 0.00 0.00 0.01 0.01 0.02 0.05 0.10 0.09 0.09 0.11 0.15 0.17 0.16 0.11 0.06 0.05 0.06 0.07 0.09 0.09 0.07 0.08 0.09 0.13 0.15 0.18 0.20
0.93 0.97 0.86 0.78 0.65 0.45 0.32 0.20 0.15 0.10 0.06 0.04 0.02 0.02 0.01 0.00 0.00 0.00 0.01 0.01 0.01 0.01 0.02 0.02 0.05 0.04 0.04 0.07 0.08 0.08 0.10 0.08 0.07 0.05 0.05 0.06 0.05 0.04 0.05 0.08 0.10 0.12 0.16
1.31 1.43 1.32 1.22 1.03 0.81 0.68 0.57 0.57 0.52 0.33 0.12 0.12 0.10 0.04 0.01 0.01 0.01 0.01 0.01 0.02 0.02 0.01 0.01 0.02 0.05 0.03 0.01 0.02 0.05 0.10 0.13 0.12 0.09 0.05 0.04 0.03 0.03 0.03 0.04 0.07 0.10 0.12
1.26 1.37 1.53 1.48 1.25 1.14 1.16 1.10 1.19 1.18 0.77 0.35 0.33 0.39 0.27 0.18 0.06 0.02 0.02 0.02 0.02 0.04 0.03 0.02 0.01 0.02 0.02 0.02 0.01 0.02 0.04 0.08 0.11 0.08 0.05 0.04 0.04 0.02 0.02 0.02 0.03 0.06 0.09
1.24 1.30 1.43 1.52 1.40 1.35 1.35 1.37 1.53 1.74 1.39 0.88 0.61 0.66 0.58 0.54 0.35 0.10 0.04 0.04 0.04 0.03 0.04 0.04 0.03 0.04 0.03 0.03 0.02 0.01 0.01 0.02 0.05 0.04 0.04 0.04 0.05 0.04 0.04 0.04 0.05 0.07 0.09
1.16 1.20 1.29 1.39 1.45 1.40 1.44 1.41 1.37 1.66 1.78 1.43 1.10 0.81 0.62 0.55 0.52 0.40 0.17 0.07 0.07 0.05 0.05 0.05 0.04 0.04 0.04 0.04 0.05 0.04 0.02 0.01 0.02 0.03 0.03 0.05 0.06 0.08 0.07 0.09 0.10 0.10 0.09
1.28 1.25 1.35 1.38 1.35 1.36 1.41 1.59 1.65 1.78 1.86 1.70 1.50 1.28 1.09 0.88 0.57 0.58 0.56 0.30 0.15 0.10 0.06 0.05 0.05 0.04 0.03 0.03 0.07 0.06 0.04 0.01 0.01 0.03 0.04 0.04 0.05 0.06 0.08 0.10 0.10 0.10 0.09
1.36 1.40 1.45 1.40 1.31 1.30 1.36 1.51 1.68 1.79 1.92 1.94 1.68 1.40 1.28 1.13 1.01 0.88 0.70 0.59 0.42 0.21 0.10 0.07 0.06 0.05 0.05 0.07 0.09 0.15 0.07 0.02 0.01 0.02 0.04 0.05 0.04 0.03 0.04 0.07 0.08 0.08 0.08
1.23 1.26 1.35 1.45 1.47 1.44 1.51 1.58 1.65 1.56 1.67 1.89 1.73 1.49 1.33 1.12 1.04 1.03 0.89 0.70 0.58 0.30 0.14 0.09 0.06 0.06 0.06 0.05 0.11 0.17 0.07 0.02 0.01 0.02 0.03 0.04 0.03 0.03 0.03 0.03 0.04 0.04 0.04
1.15 1.09 1.10 1.20 1.34 1.43 1.39 1.38 1.33 1.26 1.32 1.47 1.48 1.51 1.49 1.27 1.07 0.94 0.87 0.82 0.68 0.55 0.35 0.21 0.09 0.07 0.05 0.04 0.07 0.10 0.04 0.04 0.02 0.02 0.03 0.03 0.03 0.03 0.03 0.03 0.03 0.03 0.03
0.87 0.82 0.81 0.82 0.90 0.94 0.93 0.98 1.04 1.09 1.07 1.15 1.23 1.30 1.40 1.42 1.28 1.04 0.93 0.86 0.78 0.70 0.63 0.49 0.26 0.11 0.08 0.06 0.06 0.04 0.03 0.06 0.05 0.03 0.03 0.03 0.03 0.02 0.03 0.03 0.02 0.02 0.02
0.70 0.67 0.64 0.60 0.57 0.53 0.55 0.65 0.75 0.83 0.85 0.93 1.03 1.09 1.12 1.17 1.29 1.21 1.04 0.97 0.88 0.75 0.66 0.53 0.43 0.22 0.18 0.13 0.08 0.05 0.05 0.07 0.05 0.04 0.03 0.03 0.03 0.02 0.02 0.02 0.02 0.02 0.01
0.66 0.60 0.56 0.56 0.60 0.57 0.53 0.56 0.56 0.56 0.59 0.64 0.69 0.77 0.89 1.09 1.33 1.31 1.23 1.09 0.99 0.89 0.74 0.62 0.45 0.28 0.25 0.22 0.18 0.10 0.06 0.06 0.05 0.04 0.03 0.02 0.02 0.01 0.01 0.01 0.01 0.01 0.01
0.49 0.47 0.49 0.48 0.48 0.50 0.50 0.54 0.56 0.55 0.52 0.53 0.54 0.58 0.67 0.92 1.20 1.33 1.38 1.28 1.12 1.01 0.97 0.87 0.62 0.39 0.32 0.35 0.37 0.30 0.18 0.14 0.12 0.10 0.09 0.06 0.04 0.03 0.02 0.02 0.02 0.02 0.02
0.41 0.39 0.45 0.44 0.46 0.49 0.50 0.51 0.52 0.55 0.56 0.57 0.59 0.59 0.57 0.68 0.89 1.07 1.19 1.23 1.16 1.11 1.13 0.99 0.77 0.58 0.48 0.38 0.36 0.32 0.28 0.28 0.22 0.20 0.24 0.24 0.18 0.13 0.10 0.07 0.06 0.05 0.04
0.45 0.49 0.57 0.59 0.53 0.48 0.48 0.54 0.53 0.51 0.51 0.52 0.52 0.53 0.52 0.50 0.60 0.73 0.87 1.00 1.12 1.23 1.26 1.18 0.97 0.70 0.63 0.48 0.39 0.39 0.40 0.41 0.37 0.29 0.27 0.30 0.31 0.26 0.20 0.17 0.15 0.12 0.11
0.55 0.54 0.59 0.67 0.75 0.70 0.65 0.69 0.62 0.56 0.53 0.50 0.48 0.44 0.44 0.42 0.41 0.48 0.54 0.74 1.02 1.22 1.28 1.27 1.17 0.90 0.68 0.54 0.39 0.40 0.44 0.49 0.48 0.47 0.49 0.43 0.41 0.39 0.38 0.35 0.32 0.29 0.25
0.46 0.45 0.47 0.53 0.62 0.65 0.82 0.74 0.54 0.47 0.48 0.48 0.49 0.46 0.43 0.34 0.31 0.34 0.37 0.44 0.63 0.81 0.97 1.02 1.02 0.88 0.73 0.61 0.53 0.47 0.39 0.34 0.34 0.41 0.46 0.52 0.52 0.49 0.54 0.53 0.55 0.58 0.52
0.40 0.37 0.36 0.35 0.41 0.55 0.60 0.42 0.38 0.38 0.43 0.46 0.50 0.51 0.45 0.37 0.34 0.35 0.33 0.32 0.34 0.41 0.51 0.67 0.77 0.79 0.84 0.71 0.58 0.48 0.43 0.38 0.34 0.36 0.36 0.41 0.46 0.51 0.58 0.59 0.60 0.60 0.57
0.30 0.29 0.35 0.42 0.43 0.44 0.46 0.35 0.32 0.37 0.46 0.49 0.46 0.42 0.45 0.44 0.40 0.41 0.34 0.36 0.35 0.36 0.39 0.36 0.48 0.67 0.78 0.87 0.77 0.61 0.53 0.44 0.38 0.33 0.30 0.30 0.32 0.36 0.39 0.41 0.43 0.39 0.37
0.33 0.36 0.47 0.53 0.46 0.38 0.38 0.35 0.38 0.44 0.52 0.58 0.52 0.45 0.46 0.48 0.57 0.53 0.41 0.44 0.43 0.41 0.40 0.45 0.50 0.52 0.54 0.61 0.66 0.62 0.56 0.48 0.40 0.35 0.34 0.31 0.27 0.23 0.20 0.20 0.20 0.20 0.18
0.30 0.37 0.38 0.34 0.35 0.40 0.43 0.37 0.44 0.54 0.59 0.67 0.64 0.57 0.66 0.59 0.57 0.49 0.39 0.52 0.55 0.43 0.37 0.41 0.39 0.35 0.33 0.36 0.42 0.48 0.58 0.58 0.50 0.42 0.34 0.28 0.28 0.25 0.22 0.17 0.13 0.11 0.09